Location: San Vito
(41.8833°N, 12.9833°E)
Time: 02:47:32
(UTC+00:00)

ALOS - Pass Details

Date: 17 November 2019
Orbit: 683 x 686 km, 97.8° (Epoch: 07 December)

Event Time Altitude Azimuth Distance (km) Brightness Sun altitude
Rises 04:59:20 0° 7° (N) 3,057 5.5 -11.3°
Reaches altitude 10° 05:01:37 10° 3° (N) 2,137 4.7 -10.9°
Maximum altitude 05:06:09 52° 287° (WNW) 850 2.4 -10.1°
Drops below altitude 10° 05:10:39 10° 212° (SSW) 2,122 4.7 -9.3°
Sets 05:12:55 0° 207° (SSW) 3,034 5.5 -8.9°
